SCP
0 0 0 0 0 0 0 0 0 0 0 0 0 0 0 0 0 0 0 0 0 0 0 0 0 0 0 0 0 0 0 0 0 0 0 0 0 0 0 0 0 0 0 0 0 0 0 0 0 0 0 0 -0 -0
0 0 0 0 0 0 0 0 0 0 0 0 0 0 0 0 0 0 0 0 0 0 0 0 0 0 0 0 0 0 0 0 0 0 0 0 -0 0 0 0 0 0 0 0 0 0 0 -0 0 -0 -0 0 0 0
0 0 0 0 0 0 0 0 0 0 0 0 0 0 0 0 0 0 0 0 0 0 0 0 0 0 0 0 0 0 0 0 0 0 0 0 0 0 0 0 0 0 0 0 0 -0 -0 -0 0 -0 0 0 0 0
0 0 0 0 0 0 0 0 0 0 0 0 0 0 0 0 0 0 0 0 0 0 0 0 0 0 0 0 0 0 0 0 0 0 0 0 0 0 0 0 0 0 0 0 0 -0 -0 -0 0 0 -0 0 -0 0
0 0 0 0 0 0 0 0 0 0 0 0 0 0 0 0 0 0 0 0 0 0 0 0 0 0 0 0 0 0 0 0 0 0 0 0 0 0 0 0 0 0 0 0 0 0 0 -0 -0 0 -0 0 0 0
0 0 0 0 0 0 0 0 0 0 0 0 0 0 0 0 0 0 0 0 0 0 0 0 0 0 0 0 0 0 0 0 0 0 0 0 0 0 0 0 0 0 0 0 0 0 0 0 -0 -0 -0 -0 -0 0
0 0 0 0 0 0 0 0 0 0 0 0 0 0 0 0 0 0 0 0 0 0 0 0 0 0 0 0 0 0 0 0 0 0 0 0 0 0 0 0 0 0 0 0 0 0 0 0 -0 -0 -0 -0 -0 -0
0 0 0 0 0 0 0 0 0 0 0 0 0 0 0 0 0 0 0 0 0 0 0 0 0 0 0 0 0 0 0 0 0 0 0 0 0 0 0 0 0 0 0 0 0 0 0 0 0 0 0 0 0 0
0 0 0 0 0 0 0 0 0 0 0 0 0 0 0 0 0 0 0 0 0 0 0 0 0 0 0 0 0 0 0 0 0 0 0 0 -0 0 0 -0 -0 -0 -0 -0 -0 -0 0 0 0 0 0 0 -0 0
0 0 0 0 0 0 0 0 0 0 0 0 0 0 0 0 0 0 0 0 0 0 0 0 0 0 0 0 0 0 0 0 0 0 0 0 0 0 0 0 -0 -0 -0 0 0 0 0 0 0 0 -0 -0 0 -0
0 0 0 0 0 0 0 0 0 0 0 0 0 0 0 0 0 0 0 0 0 0 0 0 0 0 0 0 0 0 0 0 0 0 0 0 0 0 0 0 0 0 0 0 0 0 0 0 0 0 0 0 0 0
0 0 0 0 0 0 0 0 0 0 0 0 0 0 0 0 0 0 0 0 0 0 0 0 0 0 0 0 0 0 0 0 0 0 0 -0 0 -0 -0 -0 -0 0 0 0 0 0 0 0 0 0 0 0 0 0
0 0 0 0 0 0 0 0 0 0 0 0 0 0 0 0 0 0 0 0 0 0 0 0 0 0 0 0 0 0 0 0 0 0 0 -0 -0 -0 -0 -0 -0 -0 0 0 -0 -0 -0 -0 -0 0 0 0 0 0
0 0 0 0 0 0 0 0 0 0 0 0 0 0 0 0 0 0 0 0 0 0 0 0 0 0 0 0 0 0 0 0 0 0 0 -0 -0 -0 -0 -0 -0 -0 -0 -0 -0 -0 -0 -0 -0 -0 -0 0 0 0
0 0 0 0 0 0 0 0 0 0 0 0 0 0 0 0 0 0 0 0 0 0 0 0 0 0 0 0 0 0 0 0 0 0 -0 -0 -0 -0 -0 -0 -0 -0 -0 -0 -0 0 0 0 0 -0 -0 -0 -0 -0
0 0 0 0 0 0 0 0 0 0 0 0 0 0 0 0 0 0 0 0 0 0 0 0 0 0 0 0 0 0 0 0 0 -0 -0 -0 -0 -0 -0 -0 0 0 0 0 0 0 0 0 0 0 0 -0 -0 -0
0 0 0 0 0 0 0 0 0 0 0 0 0 0 0 0 0 0 0 0 0 0 0 0 0 0 0 0 0 0 0 -0 -0 -0 -0 -0 -0 -0 -0 0 0 0 0 0 0 0 0 0 0 0 0 0 -0 -0
0 0 0 0 0 0 0 0 0 0 0 0 0 0 0 0 0 0 0 0 0 0 0 0 0 0 0 0 0 0 -0 -0 -0 -0 -0 -0 -0 -0 0 0 0 0 0 0 0 0 0 0 0 0 0 0 0 -0
0 0 0 0 0 0 0 0 0 0 0 0 0 0 0 0 0 0 0 0 0 0 0 0 0 0 0 0 0 -0 -0 -0 -0 -0 -0 -0 -0 -0 0 0 0 0 0 0 0 0 0 0 0 0 0 0 0 0
0 0 0 0 0 0 0 0 0 0 0 0 0 0 0 0 0 0 0 0 0 0 0 0 0 0 0 0 0 -0 -0 -0 -0 -0 -0 -0 -0 -0 0 0 0 0 0 0 0 0 0 0 0 0 0 0 0 -0
0 0 0 0 0 0 0 0 0 0 0 0 0 0 0 0 0 0 0 0 0 0 0 0 0 0 0 0 0 -0 -0 -0 -0 -0 -0 -0 -0 -0 -0 0 0 0 0 0 0 0 0 0 0 0 0 0 0 0
0 0 0 0 0 0 0 0 0 0 0 0 0 0 0 0 0 0 0 0 0 0 0 0 0 0 0 0 0 -0 -0 -0 -0 -0 -0 -0 -0 -0 -0 -0 -0 0 0 0 0 0 0 0 0 0 0 0 0 0
0 0 0 0 0 0 0 0 0 0 0 0 0 0 0 0 0 0 0 0 0 0 0 0 0 0 0 0 0 -0 -0 -0 -0 -0 -0 -0 -0 -0 -0 -0 -0 0 0 0 0 0 0 0 0 0 0 0 0 0
0 0 0 0 0 0 0 0 0 0 0 0 0 0 0 0 0 0 0 0 0 0 0 0 0 0 0 0 -0 -0 -0 -0 -0 -0 -0 -0 -0 -0 0 -0 0 0 0 0 0 0 0 0 0 0 0 0 0 0
0 0 0 0 0 0 0 0 0 0 0 0 0 0 0 0 0 0 0 0 0 0 0 0 0 0 0 0 -0 -0 -0 -0 -0 -0 -0 -0 -0 -0 0 0 0 0 0 0 0 0 0 0 0 -0 0 0 0 0
0 0 0 0 0 0 0 0 0 0 0 0 0 0 0 0 0 0 0 0 0 0 0 0 0 0 0 -0 -0 -0 -0 -0 -0 -0 -0 -0 0 -0 0 0 0 0 0 0 0 0 0 0 0 0 0 0 0 0
0 0 0 0 0 0 0 0 0 0 0 0 0 0 0 0 0 0 0 0 0 0 0 0 0 0 0 -0 -0 -0 -0 -0 -0 -0 0 0 0 0 0 0 0 0 0 0 0 0 0 0 0 0 0 0 0 0
0 0 0 0 0 0 0 0 0 0 0 0 0 0 0 0 0 0 0 -0 0 0 0 0 0 0 -0 -0 -0 -0 -0 -0 -0 0 0 0 -0 0 0 0 0 -0 0 0 0 0 0 0 0 0 0 0 0 0
0 0 0 0 0 0 0 0 0 0 0 0 0 0 0 0 0 0 0 0 0 0 0 0 0 -0 -0 -0 -0 -0 -0 -0 0 0 -0 -0 -0 0 0 -0 0 0 -0 0 0 0 0 0 0 0 0 0 0 0
0 0 0 0 0 0 0 0 0 0 0 0 0 0 0 0 0 0 0 0 0 0 0 0 0 -0 -0 -0 -0 -0 -0 -0 -0 0 -0 -0 -0 0 -0 -0 -0 -0 0 0 0 0 0 0 0 0 0 0 0 0
0 0 0 0 0 0 0 0 0 0 0 0 0 0 0 0 0 0 0 0 0 0 0 0 -0 -0 -0 -0 -0 -0 0 -0 0 -0 -0 -0 -0 -0 -0 -0 -0 0 0 0 0 -0 -0 0 0 0 0 0 0 0
0 0 0 0 0 0 0 0 0 0 0 0 0 0 0 0 0 0 0 0 0 0 0 -0 -0 -0 -0 -0 -0 -0 0 -0 -0 -0 -0 -0 -0 -0 -0 -0 0 0 0 0 -0 0 0 0 0 0 0 0 0 0
0 0 0 0 0 0 0 0 0 0 0 0 0 0 0 0 0 0 0 0 0 0 -0 -0 -0 -0 -0 -0 -0 0 0 -0 -0 -0 -0 -0 -0 -0 -0 0 0 0 -0 -0 -0 0 0 0 0 0 0 0 0 0
Wind_Speed_500mb
29 28 31 33 32 29 32 31 31 33 36 34 33 33 34 32 31 38 43 35 30 26 57 44 24 32 58 48 22 43 24 11 9 4 8 8 7 12 12 11 8 6 6 5 9 10 15 59 33 17 23 41 1 14
31 32 34 34 30 31 32 31 31 33 34 32 36 36 37 34 35 38 47 42 34 43 63 77 78 59 32 40 31 22 21 23 10 6 6 9 17 8 21 14 14 14 6 6 8 10 32 32 38 36 42 49 55 18
34 35 35 33 30 29 31 32 31 34 35 36 35 38 39 38 37 38 48 50 46 38 48 26 22 39 11 33 47 50 45 24 28 39 18 5 11 8 6 10 16 13 24 9 14 3 31 28 35 35 42 39 52 37
36 34 34 33 31 32 33 34 37 38 35 36 36 42 38 39 38 40 46 48 33 33 15 17 5 38 68 33 35 38 41 33 31 33 18 5 7 15 7 12 15 17 19 19 25 25 28 24 40 38 36 36 38 41
35 35 37 34 33 33 33 35 36 36 38 37 38 43 39 42 40 42 45 31 18 12 14 35 61 30 38 28 18 16 26 28 27 13 3 3 12 14 9 10 10 21 15 14 16 21 26 34 46 42 32 37 44 42
38 38 41 35 32 35 35 36 37 39 38 37 42 41 38 38 41 40 10 13 7 36 18 8 30 28 23 17 24 15 26 27 27 10 17 12 24 14 8 5 15 27 35 39 28 35 42 47 43 43 36 40 43 41
38 39 35 32 32 37 40 41 41 41 41 41 43 35 37 38 40 27 16 29 44 44 9 15 16 12 27 36 23 18 34 39 45 26 12 25 35 14 5 9 35 46 38 28 27 30 32 31 37 38 34 37 41 45
39 37 35 35 36 42 39 40 44 44 45 40 40 37 41 42 45 22 16 16 10 7 7 3 9 13 27 16 14 36 41 50 31 20 11 10 18 12 4 18 27 31 27 26 26 27 42 36 21 29 42 40 39 35
36 37 36 35 37 36 42 43 38 40 38 34 36 38 43 13 5 8 10 25 26 8 5 8 1 8 15 19 19 24 14 5 14 3 6 3 5 4 11 25 8 5 12 23 21 18 20 32 30 36 42 40 41 35
39 38 40 40 34 38 43 39 34 29 25 26 31 12 6 7 15 25 8 1 8 12 14 10 10 6 19 19 10 14 8 4 4 8 12 2 6 12 25 13 8 12 17 25 31 34 37 38 40 36 34 36 41 42
40 38 37 33 36 37 39 36 31 25 24 19 4 7 18 21 17 3 4 7 9 8 13 14 21 6 20 6 6 7 5 5 3 8 5 5 1 11 28 36 40 36 38 42 43 43 44 45 45 48 47 45 47 53
42 39 39 34 33 38 34 34 32 30 12 8 12 23 13 2 3 2 5 7 8 7 13 6 18 20 18 15 4 7 4 4 8 14 5 5 3 7 23 33 34 38 42 45 49 55 59 58 59 61 64 65 60 57
45 41 34 34 36 34 31 29 33 17 9 7 4 4 3 5 2 9 7 6 5 3 8 15 14 16 7 4 7 1 1 8 11 6 5 5 12 39 45 42 45 48 51 55 63 62 64 69 70 70 69 67 67 70
44 43 41 31 28 22 12 27 24 9 8 7 6 7 8 8 8 9 7 5 7 13 18 18 15 7 15 4 9 2 8 3 5 3 9 8 42 53 59 59 64 69 67 64 67 80 84 79 79 79 80 80 81 83
43 39 32 25 23 17 21 20 12 14 10 7 8 9 10 22 22 23 24 17 17 19 16 16 14 13 7 2 6 5 9 7 8 5 5 40 54 54 54 65 65 60 67 73 74 82 80 80 78 76 72 71 70 71
41 32 33 23 25 24 23 21 23 18 8 10 14 10 20 20 23 22 16 21 21 15 12 11 3 3 7 6 2 8 8 10 12 6 42 52 57 60 63 60 68 72 81 76 83 80 78 75 74 73 70 65 62 61
42 45 37 27 35 31 27 29 20 13 11 11 16 29 40 34 28 33 31 26 17 9 5 5 3 12 7 4 10 7 5 12 37 45 54 60 60 64 59 67 75 77 74 82 80 79 77 75 70 67 64 63 56 55
54 41 35 45 43 34 34 23 11 12 17 26 17 27 32 37 40 39 38 32 28 27 21 10 12 6 7 13 13 18 43 46 52 62 62 63 59 62 65 72 74 72 73 79 77 77 74 69 67 63 63 59 54 52
43 37 48 50 50 31 20 18 14 10 26 24 35 40 40 41 40 39 35 31 27 25 19 10 6 5 10 24 28 43 50 53 61 62 55 56 59 65 66 72 75 74 73 78 76 73 72 69 65 63 58 54 54 52
37 44 48 51 41 16 14 10 15 13 11 11 29 36 40 38 38 36 33 30 30 31 22 8 13 39 44 52 52 56 63 59 60 52 54 54 60 63 68 73 73 77 77 73 74 71 69 71 63 61 60 55 54 55
56 51 51 47 40 19 11 11 18 14 14 14 18 24 23 25 28 26 29 33 34 35 21 37 47 50 46 47 49 46 56 50 50 52 57 64 65 69 74 71 76 74 69 72 70 74 71 68 73 73 72 70 62 55
66 59 60 44 16 16 16 20 14 7 11 18 29 36 22 19 29 32 36 37 35 34 36 34 30 30 37 44 47 41 40 48 50 53 57 63 67 67 70 80 76 67 71 72 70 72 76 79 80 79 74 73 64 60
66 43 26 20 13 10 11 20 13 12 7 7 8 7 10 19 30 25 14 17 26 33 36 32 37 37 32 31 37 43 50 47 51 55 60 60 60 67 77 70 69 72 71 70 68 77 84 87 87 84 75 74 68 55
51 26 14 18 24 9 10 12 14 11 12 10 4 8 11 21 34 23 10 31 38 34 31 27 24 28 38 46 47 46 41 47 52 58 57 59 67 73 67 75 72 59 58 69 72 77 83 82 79 54 47 48 32 24
18 17 14 13 18 14 8 7 14 8 8 8 4 6 6 9 3 6 14 37 49 34 9 19 28 27 36 44 44 42 45 45 51 64 67 63 64 76 81 70 61 61 71 58 76 72 68 65 50 59 37 34 29 24
11 20 21 22 13 11 11 9 11 12 6 7 9 7 5 2 2 10 7 19 4 13 19 22 31 39 41 39 43 42 42 58 68 76 77 67 69 65 65 68 72 79 62 72 61 57 59 47 36 35 33 31 32 31
10 12 19 23 18 21 10 16 21 9 7 7 5 5 4 5 9 9 3 20 23 25 31 42 39 35 35 32 40 52 64 72 67 79 74 69 60 42 44 52 59 63 62 52 43 45 35 31 28 25 26 28 31 32
14 17 15 32 33 30 9 7 6 7 8 13 9 9 8 11 9 16 38 38 35 45 50 40 24 26 31 44 59 65 65 75 75 68 66 51 34 29 29 37 35 46 45 29 26 31 30 27 22 21 27 36 43 44
13 19 22 19 27 12 15 12 15 20 25 24 7 8 18 45 47 44 39 40 42 41 29 25 25 36 52 61 63 67 69 68 68 62 57 57 49 37 33 29 37 35 43 18 23 31 28 23 31 41 46 52 57 64
16 29 13 14 11 11 19 23 20 21 26 28 30 34 39 45 52 44 38 41 33 26 23 24 34 47 61 71 71 70 72 61 46 39 46 50 48 38 30 34 38 38 19 23 17 11 15 31 46 58 68 75 78 82
13 31 28 29 17 36 40 37 33 31 34 38 39 41 46 52 50 43 34 30 25 22 24 32 47 62 65 65 71 73 72 50 36 28 27 27 27 28 23 33 30 13 21 9 11 25 44 59 66 70 74 78 81 83
20 20 14 6 18 29 22 22 27 28 33 34 35 36 37 33 32 19 22 21 23 23 28 48 65 67 67 64 60 56 47 35 22 20 18 25 24 16 11 20 6 14 2 14 34 53 62 68 71 74 76 78 78 78
12 9 2 2 4 6 7 9 6 10 19 26 30 29 23 9 3 7 11 19 20 27 49 66 65 63 61 57 44 30 15 18 17 15 15 20 15 3 8 7 9 9 21 43 58 62 67 71 74 73 73 74 74 74
Wind_Direction_500mb
291 301 299 301 307 306 313 313 315 321 323 322 326 328 330 329 327 321 317 328 317 290 297 298 303 292 302 301 288 302 319 21 316 329 288 348 308 293 255 248 249 332 355 312 338 226 239 360 344 357 311 315 16 94
287 293 292 296 296 301 308 308 313 317 323 321 321 320 322 322 321 317 313 319 318 290 281 296 298 295 293 295 321 334 291 324 314 302 326 312 309 286 296 296 299 271 217 206 168 283 311 347 4 12 347 360 352 330
284 285 290 293 291 295 299 305 307 313 313 316 315 318 318 315 316 310 307 317 318 299 305 296 299 295 311 311 302 290 288 313 309 306 298 322 294 308 290 308 323 330 347 335 334 310 315 331 6 5 354 345 335 339
283 286 289 288 288 292 296 301 303 310 308 312 311 316 320 321 316 315 316 324 319 302 284 297 150 312 313 309 313 304 297 319 306 314 295 259 273 295 299 305 293 275 302 309 296 299 332 347 342 335 332 328 327 326
276 280 285 283 286 290 296 300 305 310 311 310 306 314 316 317 315 320 322 313 285 268 296 300 303 320 307 319 307 339 318 317 327 321 278 275 288 307 266 257 267 257 262 268 284 322 290 304 305 311 314 309 305 310
275 278 283 278 283 289 293 293 300 305 308 306 301 304 312 313 316 328 310 226 237 350 327 331 306 327 13 357 335 333 330 324 311 281 275 246 277 293 303 254 241 270 284 293 286 282 277 284 289 297 296 300 297 295
273 279 273 272 282 294 291 288 295 300 302 300 302 307 312 309 308 302 275 286 294 309 302 309 306 292 342 342 358 358 335 317 304 300 253 275 279 283 214 264 288 302 304 326 339 343 320 306 309 302 308 313 298 290
269 266 267 273 279 297 296 295 294 295 298 296 299 296 309 305 300 296 299 287 310 321 258 279 269 294 353 352 330 325 312 309 297 281 269 247 287 216 324 324 349 18 352 1 352 347 324 309 336 338 340 338 333 337
256 259 266 272 281 292 302 301 294 292 288 296 292 293 303 291 288 243 303 308 292 236 269 263 222 282 346 315 313 322 303 329 300 277 268 271 298 251 235 259 7 6 317 321 344 358 349 323 335 338 336 334 328 327
247 260 268 262 280 291 302 298 297 293 298 291 289 304 291 224 263 304 287 223 179 197 218 253 256 277 296 350 325 312 305 268 346 266 302 123 324 360 34 27 10 358 334 336 332 329 328 319 322 325 319 316 304 302
245 252 255 269 283 288 296 289 292 288 294 285 270 242 254 289 323 219 269 214 199 223 214 238 256 285 346 343 250 277 263 280 350 270 91 285 171 350 358 8 356 345 338 336 331 323 312 306 304 302 304 303 299 298
246 250 253 266 277 296 282 272 274 262 258 254 278 284 300 204 205 324 244 223 224 231 183 253 309 308 313 316 324 275 204 5 257 309 63 294 90 281 349 332 330 331 329 326 322 319 313 306 301 296 292 291 288 289
239 255 249 266 282 285 265 258 239 241 249 284 295 291 236 152 335 183 221 264 258 52 255 297 339 339 323 309 269 275 311 237 273 14 244 228 14 339 346 344 333 326 320 313 311 308 308 302 296 289 285 284 283 282
245 242 242 265 278 270 232 236 230 219 190 192 215 263 189 212 228 211 219 236 322 344 346 339 310 260 264 251 226 204 247 342 322 256 269 337 337 332 327 324 321 316 316 315 311 307 303 298 295 291 287 286 281 278
231 228 238 258 250 236 211 218 194 179 182 204 205 236 232 228 247 249 263 300 305 313 334 319 287 263 259 162 221 240 351 258 229 271 313 325 322 321 320 316 315 317 313 310 308 306 302 300 298 294 289 285 282 284
220 219 228 230 231 217 195 175 171 176 206 223 232 244 259 281 273 273 288 288 285 288 314 270 253 344 264 202 142 237 251 264 306 294 317 316 314 315 316 318 317 318 316 311 312 311 310 306 302 300 297 290 290 280
211 207 225 227 207 187 170 178 180 200 221 226 237 237 254 279 281 282 282 279 285 247 199 234 146 231 288 261 232 234 240 305 305 310 313 312 310 313 314 319 319 320 313 317 315 314 312 314 315 310 301 301 293 286
206 220 224 209 181 161 173 183 195 223 235 238 247 249 248 256 263 266 268 270 261 258 257 221 227 188 232 266 272 281 287 297 309 309 307 309 312 318 321 321 321 319 316 319 320 319 321 322 318 314 313 310 300 292
217 211 205 187 178 158 177 195 209 251 236 244 249 256 259 263 265 266 264 269 272 267 247 188 247 223 236 262 283 298 300 305 304 300 310 314 319 322 323 323 323 321 321 321 320 320 320 320 318 320 321 317 308 304
202 197 180 171 168 156 169 206 210 248 256 243 256 256 258 262 266 264 265 268 270 269 241 207 237 255 260 270 280 289 291 302 303 312 316 320 324 325 325 325 324 323 321 321 321 323 323 323 324 321 322 317 311 306
156 157 158 167 181 185 191 216 220 235 247 244 255 268 265 269 268 270 270 274 273 265 262 267 268 272 281 293 295 299 303 304 314 318 324 324 326 327 324 323 324 323 321 322 322 322 324 320 324 326 322 318 317 309
155 155 161 182 182 192 235 227 229 252 236 249 270 270 267 259 268 269 272 264 262 271 275 282 296 304 303 299 301 307 317 320 320 323 323 324 328 326 323 323 324 323 321 319 320 322 328 329 326 322 316 315 316 311
155 157 153 171 188 213 247 208 220 217 234 248 237 236 241 243 258 272 270 273 290 297 303 302 306 306 309 318 319 321 317 316 319 323 323 322 320 319 319 320 321 319 317 328 334 329 326 328 325 327 333 331 324 324
153 149 162 183 194 219 206 212 217 229 226 219 211 245 266 277 280 270 261 269 280 291 294 306 317 332 325 322 318 314 314 316 320 316 317 321 322 319 317 318 323 331 334 331 333 332 331 339 345 358 10 12 13 23
141 181 184 198 195 201 211 211 200 229 228 229 226 267 271 285 270 256 263 272 279 288 316 336 331 320 311 309 307 308 315 318 315 312 317 323 319 317 319 323 330 337 337 334 330 338 343 357 350 344 5 9 11 17
190 190 186 194 199 189 199 187 194 209 201 203 235 230 229 203 229 260 240 275 40 358 340 323 320 318 312 308 310 315 316 313 313 313 317 319 320 319 318 321 326 333 334 332 340 344 347 358 355 3 15 26 30 36
194 199 197 209 207 194 208 227 230 232 179 223 214 185 158 214 241 244 339 7 339 329 320 320 324 306 302 301 302 308 311 312 311 313 315 317 318 320 319 319 321 318 332 349 355 349 353 347 356 4 19 36 44 48
203 206 199 205 213 230 212 187 188 224 219 219 214 174 204 205 227 319 323 320 313 311 314 320 302 283 292 305 309 312 311 312 318 318 316 318 326 331 327 319 330 355 10 5 353 347 349 355 15 41 59 68 73 75
202 198 210 197 213 227 239 209 217 221 236 255 247 260 273 283 291 295 300 302 305 305 304 285 288 299 311 318 316 313 318 322 322 323 321 320 329 345 348 353 358 1 0 2 0 360 15 49 73 88 90 91 92 92
206 205 214 195 168 208 217 228 236 248 252 262 272 273 276 280 287 294 289 290 302 300 286 289 307 313 317 317 317 317 319 321 319 307 304 304 314 335 351 359 7 10 17 338 338 4 60 95 101 102 102 101 99 97
198 206 223 233 243 249 249 254 258 264 270 273 275 271 273 283 293 294 280 276 281 280 281 294 311 320 319 317 316 317 318 323 320 311 306 311 327 340 353 10 13 2 335 6 98 105 113 110 106 105 103 102 100 98
200 218 230 228 253 260 268 262 258 254 263 265 268 273 278 276 270 258 242 254 260 268 298 320 324 320 317 314 314 311 308 313 332 331 327 328 329 330 7 20 297 326 176 126 123 124 120 116 113 109 105 102 101 100
219 213 160 268 210 213 247 249 247 264 261 260 266 277 279 248 137 207 231 256 268 303 319 321 322 321 320 317 311 309 309 327 328 329 336 328 325 94 61 177 238 185 148 138 133 128 123 118 113 111 108 106 103 99
Wind_Speed_850mb
29 28 31 33 32 29 32 31 31 33 36 34 33 33 34 32 31 38 43 35 30 26 57 44 24 32 58 48 22 43 24 11 9 4 8 8 7 12 12 11 8 6 6 5 9 10 15 59 33 17 23 41 1 14
31 32 34 34 30 31 32 31 31 33 34 32 36 36 37 34 35 38 47 42 34 43 63 77 78 59 32 40 31 22 21 23 10 6 6 9 17 8 21 14 14 14 6 6 8 10 32 32 38 36 42 49 55 18
34 35 35 33 30 29 31 32 31 34 35 36 35 38 39 38 37 38 48 50 46 38 48 26 22 39 11 33 47 50 45 24 28 39 18 5 11 8 6 10 16 13 24 9 14 3 31 28 35 35 42 39 52 37
36 34 34 33 31 32 33 34 37 38 35 36 36 42 38 39 38 40 46 48 33 33 15 17 5 38 68 33 35 38 41 33 31 33 18 5 7 15 7 12 15 17 19 19 25 25 28 24 40 38 36 36 38 41
35 35 37 34 33 33 33 35 36 36 38 37 38 43 39 42 40 42 45 31 18 12 14 35 61 30 38 28 18 16 26 28 27 13 3 3 12 14 9 10 10 21 15 14 16 21 26 34 46 42 32 37 44 42
38 38 41 35 32 35 35 36 37 39 38 37 42 41 38 38 41 40 10 13 7 36 18 8 30 28 23 17 24 15 26 27 27 10 17 12 24 14 8 5 15 27 35 39 28 35 42 47 43 43 36 40 43 41
38 39 35 32 32 37 40 41 41 41 41 41 43 35 37 38 40 27 16 29 44 44 9 15 16 12 27 36 23 18 34 39 45 26 12 25 35 14 5 9 35 46 38 28 27 30 32 31 37 38 34 37 41 45
39 37 35 35 36 42 39 40 44 44 45 40 40 37 41 42 45 22 16 16 10 7 7 3 9 13 27 16 14 36 41 50 31 20 11 10 18 12 4 18 27 31 27 26 26 27 42 36 21 29 42 40 39 35
36 37 36 35 37 36 42 43 38 40 38 34 36 38 43 13 5 8 10 25 26 8 5 8 1 8 15 19 19 24 14 5 14 3 6 3 5 4 11 25 8 5 12 23 21 18 20 32 30 36 42 40 41 35
39 38 40 40 34 38 43 39 34 29 25 26 31 12 6 7 15 25 8 1 8 12 14 10 10 6 19 19 10 14 8 4 4 8 12 2 6 12 25 13 8 12 17 25 31 34 37 38 40 36 34 36 41 42
40 38 37 33 36 37 39 36 31 25 24 19 4 7 18 21 17 3 4 7 9 8 13 14 21 6 20 6 6 7 5 5 3 8 5 5 1 11 28 36 40 36 38 42 43 43 44 45 45 48 47 45 47 53
42 39 39 34 33 38 34 34 32 30 12 8 12 23 13 2 3 2 5 7 8 7 13 6 18 20 18 15 4 7 4 4 8 14 5 5 3 7 23 33 34 38 42 45 49 55 59 58 59 61 64 65 60 57
45 41 34 34 36 34 31 29 33 17 9 7 4 4 3 5 2 9 7 6 5 3 8 15 14 16 7 4 7 1 1 8 11 6 5 5 12 39 45 42 45 48 51 55 63 62 64 69 70 70 69 67 67 70
44 43 41 31 28 22 12 27 24 9 8 7 6 7 8 8 8 9 7 5 7 13 18 18 15 7 15 4 9 2 8 3 5 3 9 8 42 53 59 59 64 69 67 64 67 80 84 79 79 79 80 80 81 83
43 39 32 25 23 17 21 20 12 14 10 7 8 9 10 22 22 23 24 17 17 19 16 16 14 13 7 2 6 5 9 7 8 5 5 40 54 54 54 65 65 60 67 73 74 82 80 80 78 76 72 71 70 71
41 32 33 23 25 24 23 21 23 18 8 10 14 10 20 20 23 22 16 21 21 15 12 11 3 3 7 6 2 8 8 10 12 6 42 52 57 60 63 60 68 72 81 76 83 80 78 75 74 73 70 65 62 61
42 45 37 27 35 31 27 29 20 13 11 11 16 29 40 34 28 33 31 26 17 9 5 5 3 12 7 4 10 7 5 12 37 45 54 60 60 64 59 67 75 77 74 82 80 79 77 75 70 67 64 63 56 55
54 41 35 45 43 34 34 23 11 12 17 26 17 27 32 37 40 39 38 32 28 27 21 10 12 6 7 13 13 18 43 46 52 62 62 63 59 62 65 72 74 72 73 79 77 77 74 69 67 63 63 59 54 52
43 37 48 50 50 31 20 18 14 10 26 24 35 40 40 41 40 39 35 31 27 25 19 10 6 5 10 24 28 43 50 53 61 62 55 56 59 65 66 72 75 74 73 78 76 73 72 69 65 63 58 54 54 52
37 44 48 51 41 16 14 10 15 13 11 11 29 36 40 38 38 36 33 30 30 31 22 8 13 39 44 52 52 56 63 59 60 52 54 54 60 63 68 73 73 77 77 73 74 71 69 71 63 61 60 55 54 55
56 51 51 47 40 19 11 11 18 14 14 14 18 24 23 25 28 26 29 33 34 35 21 37 47 50 46 47 49 46 56 50 50 52 57 64 65 69 74 71 76 74 69 72 70 74 71 68 73 73 72 70 62 55
66 59 60 44 16 16 16 20 14 7 11 18 29 36 22 19 29 32 36 37 35 34 36 34 30 30 37 44 47 41 40 48 50 53 57 63 67 67 70 80 76 67 71 72 70 72 76 79 80 79 74 73 64 60
66 43 26 20 13 10 11 20 13 12 7 7 8 7 10 19 30 25 14 17 26 33 36 32 37 37 32 31 37 43 50 47 51 55 60 60 60 67 77 70 69 72 71 70 68 77 84 87 87 84 75 74 68 55
51 26 14 18 24 9 10 12 14 11 12 10 4 8 11 21 34 23 10 31 38 34 31 27 24 28 38 46 47 46 41 47 52 58 57 59 67 73 67 75 72 59 58 69 72 77 83 82 79 54 47 48 32 24
18 17 14 13 18 14 8 7 14 8 8 8 4 6 6 9 3 6 14 37 49 34 9 19 28 27 36 44 44 42 45 45 51 64 67 63 64 76 81 70 61 61 71 58 76 72 68 65 50 59 37 34 29 24
11 20 21 22 13 11 11 9 11 12 6 7 9 7 5 2 2 10 7 19 4 13 19 22 31 39 41 39 43 42 42 58 68 76 77 67 69 65 65 68 72 79 62 72 61 57 59 47 36 35 33 31 32 31
10 12 19 23 18 21 10 16 21 9 7 7 5 5 4 5 9 9 3 20 23 25 31 42 39 35 35 32 40 52 64 72 67 79 74 69 60 42 44 52 59 63 62 52 43 45 35 31 28 25 26 28 31 32
14 17 15 32 33 30 9 7 6 7 8 13 9 9 8 11 9 16 38 38 35 45 50 40 24 26 31 44 59 65 65 75 75 68 66 51 34 29 29 37 35 46 45 29 26 31 30 27 22 21 27 36 43 44
13 19 22 19 27 12 15 12 15 20 25 24 7 8 18 45 47 44 39 40 42 41 29 25 25 36 52 61 63 67 69 68 68 62 57 57 49 37 33 29 37 35 43 18 23 31 28 23 31 41 46 52 57 64
16 29 13 14 11 11 19 23 20 21 26 28 30 34 39 45 52 44 38 41 33 26 23 24 34 47 61 71 71 70 72 61 46 39 46 50 48 38 30 34 38 38 19 23 17 11 15 31 46 58 68 75 78 82
13 31 28 29 17 36 40 37 33 31 34 38 39 41 46 52 50 43 34 30 25 22 24 32 47 62 65 65 71 73 72 50 36 28 27 27 27 28 23 33 30 13 21 9 11 25 44 59 66 70 74 78 81 83
20 20 14 6 18 29 22 22 27 28 33 34 35 36 37 33 32 19 22 21 23 23 28 48 65 67 67 64 60 56 47 35 22 20 18 25 24 16 11 20 6 14 2 14 34 53 62 68 71 74 76 78 78 78
12 9 2 2 4 6 7 9 6 10 19 26 30 29 23 9 3 7 11 19 20 27 49 66 65 63 61 57 44 30 15 18 17 15 15 20 15 3 8 7 9 9 21 43 58 62 67 71 74 73 73 74 74 74
Wind_Direction_850mb
291 301 299 301 307 306 313 313 315 321 323 322 326 328 330 329 327 321 317 328 317 290 297 298 303 292 302 301 288 302 319 21 316 329 288 348 308 293 255 248 249 332 355 312 338 226 239 360 344 357 311 315 16 94
287 293 292 296 296 301 308 308 313 317 323 321 321 320 322 322 321 317 313 319 318 290 281 296 298 295 293 295 321 334 291 324 314 302 326 312 309 286 296 296 299 271 217 206 168 283 311 347 4 12 347 360 352 330
284 285 290 293 291 295 299 305 307 313 313 316 315 318 318 315 316 310 307 317 318 299 305 296 299 295 311 311 302 290 288 313 309 306 298 322 294 308 290 308 323 330 347 335 334 310 315 331 6 5 354 345 335 339
283 286 289 288 288 292 296 301 303 310 308 312 311 316 320 321 316 315 316 324 319 302 284 297 150 312 313 309 313 304 297 319 306 314 295 259 273 295 299 305 293 275 302 309 296 299 332 347 342 335 332 328 327 326
276 280 285 283 286 290 296 300 305 310 311 310 306 314 316 317 315 320 322 313 285 268 296 300 303 320 307 319 307 339 318 317 327 321 278 275 288 307 266 257 267 257 262 268 284 322 290 304 305 311 314 309 305 310
275 278 283 278 283 289 293 293 300 305 308 306 301 304 312 313 316 328 310 226 237 350 327 331 306 327 13 357 335 333 330 324 311 281 275 246 277 293 303 254 241 270 284 293 286 282 277 284 289 297 296 300 297 295
273 279 273 272 282 294 291 288 295 300 302 300 302 307 312 309 308 302 275 286 294 309 302 309 306 292 342 342 358 358 335 317 304 300 253 275 279 283 214 264 288 302 304 326 339 343 320 306 309 302 308 313 298 290
269 266 267 273 279 297 296 295 294 295 298 296 299 296 309 305 300 296 299 287 310 321 258 279 269 294 353 352 330 325 312 309 297 281 269 247 287 216 324 324 349 18 352 1 352 347 324 309 336 338 340 338 333 337
256 259 266 272 281 292 302 301 294 292 288 296 292 293 303 291 288 243 303 308 292 236 269 263 222 282 346 315 313 322 303 329 300 277 268 271 298 251 235 259 7 6 317 321 344 358 349 323 335 338 336 334 328 327
247 260 268 262 280 291 302 298 297 293 298 291 289 304 291 224 263 304 287 223 179 197 218 253 256 277 296 350 325 312 305 268 346 266 302 123 324 360 34 27 10 358 334 336 332 329 328 319 322 325 319 316 304 302
245 252 255 269 283 288 296 289 292 288 294 285 270 242 254 289 323 219 269 214 199 223 214 238 256 285 346 343 250 277 263 280 350 270 91 285 171 350 358 8 356 345 338 336 331 323 312 306 304 302 304 303 299 298
246 250 253 266 277 296 282 272 274 262 258 254 278 284 300 204 205 324 244 223 224 231 183 253 309 308 313 316 324 275 204 5 257 309 63 294 90 281 349 332 330 331 329 326 322 319 313 306 301 296 292 291 288 289
239 255 249 266 282 285 265 258 239 241 249 284 295 291 236 152 335 183 221 264 258 52 255 297 339 339 323 309 269 275 311 237 273 14 244 228 14 339 346 344 333 326 320 313 311 308 308 302 296 289 285 284 283 282
245 242 242 265 278 270 232 236 230 219 190 192 215 263 189 212 228 211 219 236 322 344 346 339 310 260 264 251 226 204 247 342 322 256 269 337 337 332 327 324 321 316 316 315 311 307 303 298 295 291 287 286 281 278
231 228 238 258 250 236 211 218 194 179 182 204 205 236 232 228 247 249 263 300 305 313 334 319 287 263 259 162 221 240 351 258 229 271 313 325 322 321 320 316 315 317 313 310 308 306 302 300 298 294 289 285 282 284
220 219 228 230 231 217 195 175 171 176 206 223 232 244 259 281 273 273 288 288 285 288 314 270 253 344 264 202 142 237 251 264 306 294 317 316 314 315 316 318 317 318 316 311 312 311 310 306 302 300 297 290 290 280
211 207 225 227 207 187 170 178 180 200 221 226 237 237 254 279 281 282 282 279 285 247 199 234 146 231 288 261 232 234 240 305 305 310 313 312 310 313 314 319 319 320 313 317 315 314 312 314 315 310 301 301 293 286
206 220 224 209 181 161 173 183 195 223 235 238 247 249 248 256 263 266 268 270 261 258 257 221 227 188 232 266 272 281 287 297 309 309 307 309 312 318 321 321 321 319 316 319 320 319 321 322 318 314 313 310 300 292
217 211 205 187 178 158 177 195 209 251 236 244 249 256 259 263 265 266 264 269 272 267 247 188 247 223 236 262 283 298 300 305 304 300 310 314 319 322 323 323 323 321 321 321 320 320 320 320 318 320 321 317 308 304
202 197 180 171 168 156 169 206 210 248 256 243 256 256 258 262 266 264 265 268 270 269 241 207 237 255 260 270 280 289 291 302 303 312 316 320 324 325 325 325 324 323 321 321 321 323 323 323 324 321 322 317 311 306
156 157 158 167 181 185 191 216 220 235 247 244 255 268 265 269 268 270 270 274 273 265 262 267 268 272 281 293 295 299 303 304 314 318 324 324 326 327 324 323 324 323 321 322 322 322 324 320 324 326 322 318 317 309
155 155 161 182 182 192 235 227 229 252 236 249 270 270 267 259 268 269 272 264 262 271 275 282 296 304 303 299 301 307 317 320 320 323 323 324 328 326 323 323 324 323 321 319 320 322 328 329 326 322 316 315 316 311
155 157 153 171 188 213 247 208 220 217 234 248 237 236 241 243 258 272 270 273 290 297 303 302 306 306 309 318 319 321 317 316 319 323 323 322 320 319 319 320 321 319 317 328 334 329 326 328 325 327 333 331 324 324
153 149 162 183 194 219 206 212 217 229 226 219 211 245 266 277 280 270 261 269 280 291 294 306 317 332 325 322 318 314 314 316 320 316 317 321 322 319 317 318 323 331 334 331 333 332 331 339 345 358 10 12 13 23
141 181 184 198 195 201 211 211 200 229 228 229 226 267 271 285 270 256 263 272 279 288 316 336 331 320 311 309 307 308 315 318 315 312 317 323 319 317 319 323 330 337 337 334 330 338 343 357 350 344 5 9 11 17
190 190 186 194 199 189 199 187 194 209 201 203 235 230 229 203 229 260 240 275 40 358 340 323 320 318 312 308 310 315 316 313 313 313 317 319 320 319 318 321 326 333 334 332 340 344 347 358 355 3 15 26 30 36
194 199 197 209 207 194 208 227 230 232 179 223 214 185 158 214 241 244 339 7 339 329 320 320 324 306 302 301 302 308 311 312 311 313 315 317 318 320 319 319 321 318 332 349 355 349 353 347 356 4 19 36 44 48
203 206 199 205 213 230 212 187 188 224 219 219 214 174 204 205 227 319 323 320 313 311 314 320 302 283 292 305 309 312 311 312 318 318 316 318 326 331 327 319 330 355 10 5 353 347 349 355 15 41 59 68 73 75
202 198 210 197 213 227 239 209 217 221 236 255 247 260 273 283 291 295 300 302 305 305 304 285 288 299 311 318 316 313 318 322 322 323 321 320 329 345 348 353 358 1 0 2 0 360 15 49 73 88 90 91 92 92
206 205 214 195 168 208 217 228 236 248 252 262 272 273 276 280 287 294 289 290 302 300 286 289 307 313 317 317 317 317 319 321 319 307 304 304 314 335 351 359 7 10 17 338 338 4 60 95 101 102 102 101 99 97
198 206 223 233 243 249 249 254 258 264 270 273 275 271 273 283 293 294 280 276 281 280 281 294 311 320 319 317 316 317 318 323 320 311 306 311 327 340 353 10 13 2 335 6 98 105 113 110 106 105 103 102 100 98
200 218 230 228 253 260 268 262 258 254 263 265 268 273 278 276 270 258 242 254 260 268 298 320 324 320 317 314 314 311 308 313 332 331 327 328 329 330 7 20 297 326 176 126 123 124 120 116 113 109 105 102 101 100
219 213 160 268 210 213 247 249 247 264 261 260 266 277 279 248 137 207 231 256 268 303 319 321 322 321 320 317 311 309 309 327 328 329 336 328 325 94 61 177 238 185 148 138 133 128 123 118 113 111 108 106 103 99